Location: Newark
(50.0306°N, 2.3272°E)
Time: 15:02:22
(UTC+00:00)

Transit 2A Rocket - Pass Details

Date: 07 December 2019
Orbit: 593 x 910 km, 66.7° (Epoch: 23 January)

Event Time Altitude Azimuth Distance (km) Brightness Sun altitude
Rises 18:21:45 0° 242° (WSW) 2,932 9.2 -23.4°
Reaches altitude 10° 18:24:15 10° 251° (WSW) 1,991 8.2 -23.8°
Maximum altitude 18:28:18 34° 317° (NW) 1,003 5.9 -24.4°
Enters shadow 18:29:28 29° 350° (N) 1,110 5.8 -24.6°
Drops below altitude 10° 18:32:16 10° 24° (NNE) 1,938 - -25.1°
Sets 18:34:40 0° 34° (NE) 2,843 - -25.4°
